Location: Buenos Aires
(34.6076°S, 58.4371°W)
Time: 18:45:30
(UTC+00:00)

ISS - Pass Details

Date: 11 October 2025
Orbit: 414 x 421 km, 51.6° (Epoch: 07 November)

Event Time Altitude Azimuth Distance (km) Brightness Sun altitude
Rises 22:01:06 0° 330° (NNW) 2,358 0.4 -0.1°
Reaches altitude 10° 22:03:15 10° 338° (NNW) 1,500 -0.8 -0.5°
Maximum altitude 22:06:25 39° 48° (NE) 651 -3.1 -1.1°
Drops below altitude 10° 22:09:37 10° 118° (ESE) 1,513 -1.4 -1.8°
Sets 22:11:48 0° 125° (SE) 2,382 -0.3 -2.2°
